Regional Weather Roundup
Issued by NWS

Home | Current Version | Previous Version | Text Only | Print | Product List | Glossary Off
Versions: 1 2 3 4 5 6 7 8 9 10 11 12 13 14 15 16 17 18 19 20 21 22 23 24 25 26 27 28 29 30 31 32 33 34 35 36 37 38 39 40 41 42 43 44 45 46 47 48 49 50

000
ASUS43 KMKX 250221
RWRWI

WISCONSIN REGIONAL WEATHER ROUNDUP
NATIONAL WEATHER SERVICE MILWAUKEE/SULLIVAN WI
900 PM CDT MON JUL 24 2017

NOTE: "FAIR" INDICATES FEW OR NO CLOUDS BELOW 12,000 FEET WITH NO
SIGNIFICANT WEATHER AND/OR OBSTRUCTIONS TO VISIBILITY.

WIZ001-002-006>008-014>016-023>028-250300-
NORTHWEST WISCONSIN

CITY           SKY/WX    TMP DP  RH WIND       PRES   REMARKS
SUPERIOR ARPT  NOT AVBL
ASHLAND        CLEAR     59  58  96 CALM      30.07R
HAYWARD        CLOUDY    66  59  78 CALM      30.07S
SIREN          PTCLDY    68  59  72 SE3       30.05F
CUMBERLAND     CLEAR     64  57  77 SE3       30.08S
RICE LAKE      CLEAR     65  58  78 CALM      30.09S
CHETEK         CLEAR     65  60  81 CALM      30.08R
LADYSMITH      CLEAR     68  58  72 CALM      30.10R
EAU CLAIRE     CLEAR     69  58  67 S5        30.07R
MENOMONIE      PTCLDY    68  62  80 S3        30.07R
NEW RICHMOND   PTCLDY    67  59  74 SE6       30.06S
OSCEOLA        PTCLDY    69  60  74 SE5       30.07S
$$

WIZ003>005-009-010-017-018-250300-
NORTH CENTRAL WISCONSIN

CITY           SKY/WX    TMP DP  RH WIND       PRES   REMARKS
MANITOWISH WTR CLEAR     60  60 100 CALM      30.09S
ARBOR VITAE    CLEAR     64  57  78 CALM      30.10S
WOODRUFF       CLEAR     64  57  78 CALM      30.10S
RHINELANDER    CLEAR     65  57  75 CALM      30.11S
EAGLE RIVER    CLEAR     66  51  58 CALM      30.11R
LAND O LAKES   CLEAR     60  55  84 CALM      30.12R
PHILLIPS       PTCLDY    66  58  73 S5        30.09S
TOMAHAWK         N/A     60  56  86 CALM      30.11S
MEDFORD        PTCLDY    64  56  77 CALM      30.10S
MERRILL        CLEAR     65  56  71 SE3       30.11R
$$

WIZ029-030-035-036-043>047-250300-
CENTRAL WISCONSIN

CITY           SKY/WX    TMP DP  RH WIND       PRES   REMARKS
WAUSAU         CLEAR     68  55  63 SE8       30.09S
MOSINEE        PTCLDY    64  57  77 SE3       30.11S
MARSHFIELD     CLEAR     66  56  70 CALM      30.09S
STEVENS POINT  CLEAR     64  54  70 E3        30.11S
WAUPACA        CLEAR     65  58  77 CALM      30.11R
WAUTOMA        CLEAR     65  60  84 E3        30.10R
WISC RAPIDS    CLEAR     66  56  70 SE3       30.11R
CAMP DOUGLAS   PTCLDY    61  59  94 E3        30.08S
$$

WIZ011>013-019>022-031-037>040-048>050-250300-
NORTHEAST WISCONSIN

CITY           SKY/WX    TMP DP  RH WIND       PRES   REMARKS
ANTIGO         CLEAR     60  55  84 S5        30.13R
SHAWANO        CLEAR     65  56  70 CALM      30.11R
OCONTO         CLEAR     60  57  90 CALM      30.10S
STURGEON BAY     N/A     62  55  77 S3        30.12R
GREEN BAY      CLEAR     64  57  78 SE3       30.11R
MANITOWOC      CLEAR     62  52  69 NW3       30.12R
APPLETON       PTCLDY    66  46  48 E5        30.09S
CLINTONVILLE   CLEAR    N/A N/A N/A CALM      30.11R
OSHKOSH        CLEAR     64  55  72 SE3       30.10R
$$

WIZ032>034-041-042-053>061-250300-
SOUTHWEST WISCONSIN

CITY           SKY/WX    TMP DP  RH WIND       PRES   REMARKS
LA CROSSE      PTCLDY    72  60  66 S8        30.07R
SPARTA         CLEAR     62  60  91 CALM      30.09R
VIROQUA        PTCLDY    66  60  82 CALM      30.09S
BOSCOBEL       CLEAR     65  61  87 CALM      30.08R
PRAIRIE DU CHI CLEAR     66  60  79 E3        30.06S
PLATTEVILLE    CLEAR     67  63  85 SE5       30.08S
$$

WIZ056-057-062-063-064-067-068-250300-
SOUTH CENTRAL WISCONSIN

CITY           SKY/WX    TMP DP  RH WIND       PRES   REMARKS
REEDSBURG      CLEAR     66  62  86 CALM      30.08S
BARABOO/DELLS  CLEAR     63  57  81 E5        30.09S
LONE ROCK      CLEAR     64  60  87 CALM      30.07S
MINERAL POINT  CLEAR     68  61  77 CALM      30.09S
MADISON        PTCLDY    67  57  70 E7        30.09R
MIDDLETON      CLEAR     66  60  81 E3        30.09S
WATERTOWN      CLEAR     61  57  87 E3        30.09S
MONROE         CLEAR     66  59  77 E5        30.09S
JANESVILLE     PTCLDY    66  57  72 E6        30.08R
$$

WIZ051-052-058>065-066-070>072-250300-
SOUTHEAST WISCONSIN

CITY           SKY/WX    TMP DP  RH WIND       PRES   REMARKS
MILWAUKEE      PTCLDY    65  56  72 NE5       30.10R
WAUKESHA       CLEAR     63  48  59 NE5       30.12R
MILWAUKEE/TIMM CLEAR     64  52  63 NE5       30.11R
RACINE         CLEAR     63  58  83 N5        30.12R
KENOSHA        CLEAR     62  57  83 NE5       30.10R
FOND DU LAC    CLEAR     66  49  54 E5        30.10S
SHEBOYGAN      CLEAR     59  56  89 CALM      30.11R
WEST BEND      CLEAR     59  55  88 CALM      30.11R
JUNEAU         CLEAR     64  52  63 E3        30.12R
$$

LSZ147-162-250300-
LAKE SUPERIOR

STATION/POSITION TIME  TEMP    WIND        PRES    WAVE
                       AIR SEA DIR/SP/G            HT/PER
                 (UTC) (F)     (DEG/KT/KT) (MB)    (FT/S)
W MID LAKE BUOY  0150   55 53  180/  4/  6 1018.0R   0
DEVILS ISLAND    0200   62     130/  5/  6 1017.6R
SAXON HARBOR     0140   62     180/  3/  4 1017.3F
$$

LMZ867-665-643>646-250300-
LAKE MICHIGAN

STATION/POSITION TIME  TEMP    WIND        PRES    WAVE
                       AIR SEA DIR/SP/G            HT/PER
                 (UTC) (F)     (DEG/KT/KT) (MB)    (FT/S)
CHAMBERS ISLAND  0140   63     150/  2/  3 1018.6R
S GREEN BAY BUOY 0200   69 73  160/  8/ 10 1019.3
N MID LAKE BUOY  0150   66 67  240/  4/  6 1019.8R   1
NORTHPORT PIER   0140   65     190/  2/  5 1019.0R
KEWAUNEE LAKESHO 0154   64     280/  2/  3 1018.9R
SHEBOYGAN LAKESH 0200   67      40/  8/  9 1019.1R
PORT WASHINGTON  0140   66      10/  3/  5 1020.0S
ATWATER BUOY     0109   67 69   40/ 12/ 14 1019.1R
MILWAUKEE LAKESH 0200   66      10/  7/  8   N/A
S MID LAKE BUOY  0150   67 70   20/ 12/ 14 1018.6R   4/ 6
KENOSHA   LAKESH 0200   67      20/ 12/ 13 1019.0
$$

TC  - TEMPERATURE IN CELSIUS
VSB - VISIBILITY IN STATUTE MILES
WCI - WIND CHILL INDEX
HX  - HEAT INDEX





USA.gov is the U.S. government's official web portal to all federal, state and local government web resources and services.